Regional Weather Roundup
Issued by NWS

Home | Current Version | Previous Version | Text Only | Print | Product List | Glossary Off
Versions: 1 2 3 4 5 6 7 8 9 10 11 12 13 14 15 16 17 18 19 20 21 22 23 24 25 26 27 28 29 30 31 32 33 34 35 36 37 38 39 40 41 42 43 44 45 46 47 48 49 50

000
ASUS43 KDTX 171510
RWRMI
MICHIGAN HOURLY REGIONAL WEATHER ROUNDUP
NATIONAL WEATHER SERVICE DETROIT/PONTIAC MI
1000 AM EST WED JAN 17 2018

NOTE: "FAIR" INDICATES FEW OR NO CLOUDS BELOW 12,000 FEET WITH NO
SIGNIFICANT WEATHER AND/OR OBSTRUCTION TO VISIBILITY.

MIZ047>049-052>055-059>063-066>070-074>076-081>083-171600-
SOUTHEAST LOWER MICHIGAN

CITY           SKY/WX    TMP DP  RH WIND       PRES   REMARKS
ADRIAN         CLOUDY     7   4  87 SW8       30.48R WCI  -6
ALMA           FAIR      14   9  81 SW8       30.39S WCI   3
ANN ARBOR      CLOUDY    10   6  84 S6        30.45R WCI   0
BAD AXE        FAIR      10   8  91 SW10      30.37S WCI  -4
CARO           FAIR      11   9  89 SW8       30.39S WCI   0
DETROIT CITY   PTSUNNY   12   6  77 SW8       30.46R WCI   0
DETROIT        CLOUDY     9   4  80 W7        30.48R WCI  -2
FLINT          FAIR      11   6  81 SW10      30.41S WCI  -3
GROSSE ILE     CLOUDY     7   3  83 SW3       30.47S
HILLSDALE      LGT SNOW  14  10  85 W5        30.43R WCI   6
HOWELL         CLOUDY    12   9  87 SW5       30.41S WCI   4

CITY           SKY/WX    TMP DP  RH WIND       PRES   REMARKS
JACKSON        CLOUDY    11   8  88 SW12      30.43R WCI  -3
LAMBERTVILLE   LGT SNOW   8   4  86 SW5       30.50R WCI  -1
LANSING        FAIR      14   9  80 SW13      30.42S WCI   0
LAPEER         FLURRIES  11   8  89 W8        30.40S WCI  -1
MASON          FLURRIES  13   7  76 SW3       30.43R
MONROE         CLOUDY     7   2  81 SW8       30.48S WCI  -5
MT. CLEMENS    PTSUNNY   11   7  83 W9        30.45R WCI  -1
PONTIAC        PTSUNNY    9   5  84 SW7       30.40S WCI  -2
PORT HOPE        N/A     14   6  70 SW9G17    30.34S WCI   2
PORT HURON     CLOUDY     9   5  85 SW3       30.43S
TRI CITIES     FAIR      14   9  80 SW16      30.38F WCI  -2
MIDLAND        FAIR      18  11  75 SW8       30.37S WCI   7
TROY           FAIR      13   8  79 W8        30.46R WCI   1
SAGINAW HB     FAIR      12   9  85 SW13      30.39S WCI  -3
$$
MIZ043>046-050>051-056>058-064>065-071>073-077>080-171600-
SOUTHWEST LOWER MICHIGAN

CITY           SKY/WX    TMP DP  RH WIND       PRES   REMARKS
BATTLE CREEK   FAIR      12   9  87 SW9       30.43S WCI   0
BENTON HARBOR  FAIR      23  13  65 W17       30.48R WCI   9
BIG RAPIDS     CLOUDY    19  12  77 W10G17    30.34S WCI   7
COLDWATER      PTSUNNY   12  10  92 SW5       30.46R WCI   4
FREMONT        PTSUNNY   21  12  66 W7        30.39R WCI  13
HOLLAND        FAIR      24  14  65 W16G22    30.43S WCI  11
GRAND RAPIDS   FAIR      17  11  77 SW9       30.41S WCI   6
IONIA          FAIR      15  10  81 SW7       30.40R WCI   5
KALAMAZOO      FAIR      14  11  87 SW8       30.45S WCI   3
LUDINGTON      FAIR      22  13  68 W12G18    30.37S WCI  10
MARSHALL       FAIR      11   9  91 SW6       30.44R WCI   2
MOUNT PLEASANT FAIR      18  10  72 SW8       30.36S WCI   8
MUSKEGON       FAIR      24  13  62 W16G26    30.42S WCI  11
SOUTH HAVEN    FAIR      24  15  66 W9G17     30.46S WCI  15
$$
MIZ016>042-171600-
NORTHERN LOWER MICHIGAN

CITY           SKY/WX    TMP DP  RH WIND       PRES   REMARKS
ALPENA         CLOUDY    16  12  84 SW8       30.24F WCI   5
BEAVER ISLAND  FAIR      21  13  71 SW20G30   30.18F WCI   6
BELLAIRE       CLOUDY    22  16  78 SW7       30.28F WCI  13
CADILLAC       FAIR      16  13  87 W10       30.27R WCI   4
CHARLEVOIX     FAIR      23  15  70 SW14G22   30.25F WCI  10
FRANKFORT      PTSUNNY   22  15  74 W10G21    30.32F WCI  11
GRAYLING       CLOUDY    18  12  79 W10       30.26S WCI   6
HARBOR SPRINGS PTSUNNY   23  15  70 SW17G28   30.20F WCI   9
HOUGHTON LAKE  CLOUDY    15  11  83 SW10      30.28F WCI   2
MANISTEE       PTSUNNY   20  13  74 W15G24    30.35S WCI   6
OSCODA         CLOUDY    13  10  87 SW10      30.30F WCI   0
PELLSTON       FAIR      24  14  65 SW18G29   30.18F WCI  10
ROGERS CITY    FLURRIES  19  14  80 SW13      30.22S WCI   7
TRAVERSE CITY  CLOUDY    21  14  74 SW10      30.29S WCI  10
$$
MIZ007>008-015-171600-
EASTERN UPPER MICHIGAN

CITY           SKY/WX    TMP DP  RH WIND       PRES   REMARKS
KINROSS        FAIR      19  14  81 SW10G18   30.12F WCI   7
MACKINAC ISLAN FAIR      22  17  81 SW15G30   30.15F HAZE    WCI   9
NEWBERRY       FAIR      11   5  76 SW17G23   30.10F WCI  -6
S. S. MARIE    FAIR      20  12  71 SW16G22   30.10S WCI   6
MUNISING         N/A     12   6  77 S13       30.11F WCI  -3
$$
MIZ004>006-011>014-085-171600-
CENTRAL UPPER MICHIGAN

CITY           SKY/WX    TMP DP  RH WIND       PRES   REMARKS
MANISTIQUE     FAIR      11   4  75 SW10G17   30.17F WCI  -3
ESCANABA       FAIR       9   4  80 SW10      30.20F WCI  -5
MENOMINEE      FAIR       9   3  77 W10G17    30.28F WCI  -5
SAWYER-GWINN   SUNNY     10   1  67 SW12      30.08S WCI  -4
$$
MIZ001>003-009>011-084-171600-
WESTERN UPPER MICHIGAN

CITY           SKY/WX    TMP DP  RH WIND       PRES   REMARKS
IRON MOUNTAIN  FAIR      13   0  56 W12G25    30.14F WCI  -1
HOUGHTON       MIX PCPN  17   2  51 W22G31    29.99F WCI   0
COPPER HARBOR    N/A     22   9  57 W10G25    29.94F WCI  11
IRONWOOD       FAIR      12   0  58 SW13      30.11F WCI  -3
$$

ABBREVIATIONS USED IN REMARKS
   TC - TEMPERATURE IN CELSIUS
  WCI - WIND CHILL INDEX
   HX - HEAT INDEX
  VSB - VISIBILITY





USA.gov is the U.S. government's official web portal to all federal, state and local government web resources and services.